Retour au catalogue

ST 2

ActifCommunicationsGEO
NORAD 37606·PAYLOAD·🇸🇬 Singapore🇹🇼 Taiwan

Lancé May 20, 2011 depuis Guiana Space Centre

Loading…

TLE

FraisSource: Space-Track

Époque: Sep 14, 2026, 14:13 UTC

1 37606U 11022B   26257.59260775 -.00000219  00000-0  00000-0 0  9994
2 37606   0.0213 110.5926 0002113  98.9952  85.3291  1.00271410 56176

Suivez ST 2 en temps réel avec AllMySat

Download on the App Store